User: anonymous   Login
Location: Home
(42.5358°N, 72.7383°W)
Time: 11:50:15
(UTC-05:00)
Language:

Vanguard 2 Rocket - Orbit

View from above orbital plane
View from above orbital plane
View from above satellite
View from above satellite

Ground track
Ground track

The orbit data is extracted from the following two-line orbital elements,

1    12U 59001B   21340.03754283  .00000536  00000-0  32222-3 0  9998
2    12  32.8990 273.4252 1664144  17.3068 347.7934 11.44448686584046
Epoch (UTC): 06 December 2021 00:54:03
Eccentricity: 0.1664144
inclination: 32.8990°
perigee height: 555 km
apogee height: 3324 km
right ascension of ascending node: 273.4252°
argument of perigee: 17.3068°
revolutions per day: 11.44448686
mean anomaly at epoch: 347.7934°
orbit number at epoch: 58404

The dashed part of the orbit path shows where the satellite is in the earth's shadow,  

DLR